Location: Albany
(42.6526°N, 73.7562°W)
Time: 07:34:39
(UTC+00:00)

Cosmos 1862 - Pass Details

Date: 19 November 2019
Orbit: 538 x 557 km, 82.5° (Epoch: 15 December)

Event Time Altitude Azimuth Distance (km) Brightness Sun altitude
Rises 22:03:19 0° 0° (N) 2,709 6.6 -6.6°
Reaches altitude 10° 22:05:37 10° 10° (N) 1,814 5.7 -7.0°
Maximum altitude 22:09:17 34° 76° (ENE) 901 3.9 -7.6°
Drops below altitude 10° 22:12:57 10° 143° (SE) 1,810 5.8 -8.3°
Sets 22:15:14 0° 153° (SSE) 2,701 6.8 -8.7°
